Home   Weather   Thomasville   Past weeks
Flag for USA

Past Weather in Thomasville, North Carolina, USA — Yesterday and Last 2 Weeks

Now
55 °F

Fog.


Feels Like: 55 °F
Forecast: 76 / 53 °F
Wind: No wind

Location: Davidson County Airport

Current Time: Oct 14, 2019 at 9:47:35 am

Latest Report: Oct 14, 2019 at 8:55 am


Visibility: 1 mi

Pressure: 30.09 "Hg

Humidity: 100%

Dew Point: 55 °F

Location of ThomasvilleLocation

Past Weather in Thomasville — Graph

°F

Thomasville Temperature Yesterday

Maximum temperature yesterday: 66 °F (at 12:15 am)
Minimum temperature yesterday: 60 °F (at 9:15 am)
Average temperature yesterday: 63 °F

High & Low Weather Summary for the Past Weeks

 TemperatureHumidityPressure
High96 °F (Oct 3, 3:55 pm)100% (Sep 29, 8:15 am)30.32 "Hg (Sep 29, 8:15 am)
Low48 °F (Oct 11, 6:15 am)28% (Oct 4, 6:35 pm)29.94 "Hg (Oct 2, 4:35 pm)
Average70 °F80%30.11 "Hg
* Reported Sep 29 8:15 am — Oct 14 8:35 am, Thomasville. Weather by CustomWeather, © 2019

Note: Actual official high and low records may vary slightly from our data, if they occured in-between our weather recording intervals... More about our weather records

Advertising

Thomasville Weather History for the Previous 24 Hours

Scroll right to see more
 ConditionsComfort  
Time TempWeatherWind HumidityBarometerVisibility
8:35 am
Mon, Oct 14
55 °FFog.No wind100%30.08 "Hg1 mi
7:55 am56 °FFog.No wind100%30.07 "Hg1 mi
7:35 am56 °FFog.No wind100%30.06 "Hg2 mi
7:15 am56 °FFog.No wind100%30.06 "Hg3 mi
6:55 am56 °FFog.No wind100%30.05 "Hg4 mi
6:35 am56 °FFog.No wind100%30.05 "Hg3 mi
6:15 am57 °FFog.No wind100%30.04 "Hg4 mi
5:55 am58 °FPassing clouds.No wind100%30.03 "Hg7 mi
5:15 am59 °FLow clouds.No wind100%30.03 "Hg10 mi
4:55 am60 °FFog.No wind100%30.02 "Hg4 mi
3:55 am61 °FFog.No wind100%30.00 "Hg4 mi
3:35 am61 °FFog.No wind100%30.01 "Hg5 mi
2:55 am61 °FFog.No wind100%30.01 "Hg4 mi
2:15 am61 °FFog.No wind100%30.02 "Hg5 mi
1:55 am61 °FFog.No wind100%30.02 "Hg4 mi
1:15 am61 °FFog.No wind100%30.02 "Hg4 mi
12:55 am62 °FFog.No wind100%30.02 "Hg4 mi
12:35 am61 °FFog.No wind100%30.01 "Hg5 mi
12:15 am61 °FFog.No wind100%30.02 "Hg4 mi
11:55 pm
Sun, Oct 13
61 °FFog.No wind100%30.03 "Hg5 mi
11:35 pm61 °FFog.No wind100%30.02 "Hg4 mi
11:15 pm61 °FFog.No wind100%30.02 "Hg4 mi
10:55 pm61 °FFog.No wind100%30.03 "Hg4 mi
10:15 pm61 °FFog.No wind100%30.02 "Hg4 mi
9:55 pm61 °FFog.3 mph100%30.03 "Hg5 mi
9:35 pm62 °FFog.3 mph100%30.04 "Hg5 mi
9:15 pm62 °FFog.No wind100%30.03 "Hg5 mi
8:55 pm62 °FFog.No wind100%30.03 "Hg4 mi
8:15 pm62 °FFog.No wind100%29.99 "Hg3 mi
7:55 pm62 °FFog.No wind100%29.99 "Hg4 mi
7:15 pm62 °FOvercast.No wind100%30.02 "Hg7 mi
6:55 pm62 °FMostly cloudy.3 mph100%30.00 "Hg7 mi
6:35 pm63 °FFog.No wind100%30.00 "Hg5 mi
6:15 pm63 °FFog.3 mph100%30.00 "Hg4 mi
5:55 pm64 °FFog.No wind100%30.00 "Hg4 mi
5:35 pm64 °FFog.No wind100%29.99 "Hg5 mi
5:15 pm65 °FMostly cloudy.3 mph100%30.00 "Hg7 mi
4:55 pm65 °FRain. Mostly cloudy.6 mph100%30.00 "Hg10 mi
4:15 pm66 °FRain. Mostly cloudy.3 mph100%29.99 "Hg2 mi
3:55 pm66 °FLight rain. Mostly cloudy.3 mph100%29.99 "Hg5 mi
3:15 pm65 °FDrizzle. Cloudy.No wind100%29.99 "Hg5 mi
2:55 pm64 °FFog.No wind100%29.99 "Hg5 mi
2:35 pm64 °FRain. Cloudy.No wind100%30.00 "Hg1 mi
1:55 pm63 °FDrizzle. Mostly cloudy.No wind100%30.02 "Hg5 mi
1:35 pm63 °FLight rain. Mostly cloudy.3 mph100%30.03 "Hg5 mi
1:15 pm62 °FRain. Broken clouds.No wind100%30.05 "Hg5 mi
12:55 pm62 °FRain. Broken clouds.No wind100%30.05 "Hg1 mi
12:35 pm62 °FLight rain. More clouds than sun.No wind100%30.05 "Hg5 mi
12:15 pm62 °FHeavy rain. Mostly cloudy.6 mph100%30.06 "Hg2 mi
11:55 am62 °FDrizzle. Low clouds.3 mph100%30.07 "Hg10 mi
11:35 am61 °FPartly sunny.3 mph100%30.08 "Hg10 mi
11:15 am61 °FBroken clouds.No wind100%30.08 "Hg10 mi
10:55 am60 °FLight rain. Scattered clouds.5 mph100%30.06 "Hg10 mi
10:15 am60 °FLight rain. More clouds than sun.5 mph100%30.07 "Hg7 mi
9:55 am60 °FRain. Broken clouds.No wind100%30.08 "Hg7 mi
9:35 am60 °FScattered clouds.No wind100%30.08 "Hg10 mi
9:15 am60 °FRain. Scattered clouds.5 mph100%30.06 "Hg5 mi
Weather by CustomWeather, © 2019

See weather overview